RH
71 48 46 30 24 37 46 30 24 28 30 39 48 53 53 68 42 47 72 74 73 90 95 97 96 94 93 91 88 88 89 89 88 90 91 90 90 90 90 89 88 84 78 78 79 79 75 76 79
45 36 30 35 36 38 31 30 26 25 46 56 47 53 64 66 61 70 68 79 83 92 91 86 96 94 93 93 91 88 87 89 90 90 91 91 91 91 88 89 89 86 79 77 78 79 77 77 81
41 31 29 39 49 34 31 24 24 35 55 49 54 55 59 70 66 67 85 82 91 95 87 85 97 95 94 94 93 91 88 90 92 92 92 91 90 89 88 90 90 86 80 75 76 81 82 84 85
36 33 33 33 51 33 27 21 23 47 48 50 51 54 57 59 62 71 85 88 94 90 83 91 97 96 95 94 94 92 90 88 90 92 92 90 88 88 89 90 90 86 80 74 74 85 87 87 85
38 35 38 47 38 26 22 19 22 38 42 46 45 58 70 70 82 84 87 87 96 91 88 92 97 96 95 95 95 93 92 90 90 90 92 92 92 91 91 91 90 89 85 82 83 88 90 90 88
41 38 44 47 35 27 26 19 20 27 44 49 51 52 62 74 81 86 83 94 97 95 90 93 97 96 96 97 96 95 94 93 92 90 90 91 92 91 91 91 90 90 88 88 89 90 91 92 91
43 44 47 58 36 29 23 20 23 42 46 44 43 54 68 68 78 82 90 96 98 96 91 94 98 98 100 100 98 97 96 95 94 93 92 92 92 90 90 90 91 90 90 90 90 90 91 92 93
40 42 60 56 34 29 22 19 22 26 29 39 42 54 62 67 86 92 97 98 99 98 90 91 93 88 81 89 99 97 98 97 97 96 95 95 94 92 91 92 91 91 90 89 90 92 92 92 93
38 48 53 45 32 28 24 22 19 21 32 34 42 49 57 86 90 96 99 97 97 96 91 93 91 88 84 81 81 84 90 98 97 97 96 98 97 96 94 95 94 92 90 89 89 90 91 94 95
42 50 43 34 28 29 26 27 22 22 24 23 57 71 79 86 90 95 98 95 96 95 95 90 90 92 87 80 84 81 92 99 99 98 98 98 94 98 96 95 95 92 92 90 89 89 91 92 96
43 41 35 31 28 29 27 24 23 23 26 20 30 71 79 84 91 94 96 97 97 93 95 97 92 89 88 84 89 96 98 99 100 99 99 94 94 99 99 99 99 98 94 98 96 96 97 97 96
40 32 30 29 29 28 29 24 21 24 19 18 23 66 76 81 86 88 92 95 98 99 98 99 99 98 93 94 92 91 94 98 100 99 98 100 100 99 99 99 98 98 99 99 98 99 98 97 95
35 31 28 27 27 27 26 25 24 22 22 44 54 61 75 75 72 67 73 86 97 98 97 98 98 99 99 99 100 100 99 99 98 98 98 99 99 99 98 98 99 99 98 99 99 99 98 98 96
29 29 28 32 30 27 27 25 26 22 43 49 56 65 68 63 60 84 91 90 96 95 97 99 99 98 98 99 98 98 98 98 98 95 93 93 96 96 97 97 98 98 99 99 99 99 98 98 97
35 37 34 33 30 28 27 29 26 23 46 50 53 57 59 61 81 88 90 97 96 96 97 98 99 98 98 98 98 99 99 94 95 95 94 93 94 96 95 97 96 95 98 98 99 98 97 96 94
44 43 47 34 32 29 26 33 24 27 45 51 52 55 64 81 88 91 93 94 93 94 97 97 95 98 97 97 97 97 92 93 94 95 96 94 95 94 96 97 96 95 98 99 99 98 99 98 96
54 50 47 36 29 31 29 35 24 29 43 50 55 59 75 87 88 92 94 93 93 95 97 98 97 97 96 96 98 97 96 96 94 94 94 94 95 96 98 99 99 98 99 99 99 98 99 98 97
53 54 47 44 39 40 41 35 30 35 34 45 53 66 84 91 91 88 80 82 89 97 91 96 96 96 97 98 96 95 97 92 95 92 89 91 96 95 96 97 97 98 95 97 97 97 96 97 96
44 49 46 47 38 44 43 45 38 35 32 37 53 75 90 92 84 79 76 77 79 82 93 96 95 93 94 82 76 81 89 95 88 88 82 85 91 91 92 93 92 97 95 97 97 98 96 95 95
55 58 52 47 42 42 47 50 40 39 34 39 50 64 84 80 76 72 74 73 76 67 67 69 68 68 64 61 68 77 82 93 84 83 82 84 85 87 87 90 93 96 98 98 97 98 99 97 96
55 53 48 52 52 50 50 50 43 38 37 42 46 56 74 77 75 71 67 72 69 65 58 56 60 62 66 64 69 73 72 74 74 81 81 81 84 86 87 88 92 96 98 98 96 96 95 98 97
55 47 51 54 62 68 55 73 51 46 40 52 56 68 74 70 66 64 67 68 65 67 68 62 59 56 61 63 63 62 67 68 82 87 85 81 84 86 86 88 91 93 95 92 95 96 96 98 97
50 48 54 56 68 75 64 70 55 42 47 48 62 68 72 65 62 62 65 60 64 66 61 59 58 60 60 61 60 65 71 78 84 80 76 82 85 85 85 87 88 88 91 88 88 90 94 97 98
48 56 61 66 69 89 59 64 62 49 41 47 51 61 69 65 60 60 60 61 63 60 59 57 54 57 56 57 57 58 62 70 70 77 81 81 82 87 84 81 85 85 84 82 86 90 92 95 97
50 58 81 87 89 78 53 63 50 47 42 39 46 58 66 63 60 60 62 60 56 56 55 54 54 56 56 57 57 62 68 71 73 80 79 77 82 85 84 83 79 79 80 82 86 87 89 91 95
52 49 80 84 77 60 57 72 55 43 38 42 44 50 62 65 58 59 60 56 53 52 53 55 56 56 54 54 56 68 70 79 81 76 76 83 89 90 88 88 86 84 83 85 89 93 93 92 96
60 65 46 75 80 88 71 62 47 52 47 53 59 62 65 63 58 59 59 54 52 52 54 56 52 54 55 54 60 62 59 60 61 63 73 82 84 81 84 87 88 86 84 84 85 92 93 92 94
45 50 70 80 88 78 75 75 63 55 55 63 67 66 63 60 60 60 57 53 49 50 55 51 49 50 54 53 52 50 51 55 58 63 66 69 74 77 81 82 85 86 87 87 88 90 90 93 90
55 58 61 62 90 78 66 59 55 44 46 59 62 62 60 62 61 59 52 49 50 52 49 48 43 38 41 44 50 53 56 56 61 72 76 78 79 80 80 82 84 85 86 88 92 91 90 91 90
39 46 50 73 89 92 79 56 50 52 58 58 59 60 61 60 57 51 47 50 50 47 45 43 46 45 48 51 54 58 62 66 71 73 75 79 77 78 79 80 81 82 84 87 89 90 89 91 92
Wind_Speed
3 3 2 5 6 6 1 4 2 1 1 1 6 5 5 2 3 4 4 5 7 12 11 9 10 11 13 14 15 15 15 16 15 15 14 14 13 11 9 9 9 10 11 11 10 11 12 12 12
2 3 5 3 6 4 5 4 4 3 4 7 6 4 2 2 2 0 3 5 7 13 11 12 11 12 13 13 13 14 13 14 14 12 13 12 13 12 11 8 7 7 8 9 8 9 10 11 10
3 4 5 5 4 3 3 5 4 3 5 1 3 3 3 1 2 5 2 9 12 9 11 11 10 10 12 13 12 13 12 12 13 12 11 10 10 10 10 8 7 5 5 6 6 7 7 7 8
3 5 5 5 1 4 4 5 2 5 1 2 4 5 2 2 1 4 8 11 12 10 10 11 10 10 11 12 12 12 11 11 11 10 10 9 9 8 8 7 6 5 4 3 4 5 5 5 7
5 4 5 3 4 5 4 5 1 2 1 3 1 3 3 3 5 8 9 9 13 11 10 11 10 10 10 11 11 11 11 10 11 10 10 9 8 7 7 6 5 4 3 3 3 5 4 4 5
5 3 5 2 5 5 5 6 4 2 1 1 4 4 1 5 4 5 7 8 8 12 10 10 9 9 9 10 10 10 10 10 10 9 9 8 8 6 5 4 4 3 3 3 3 4 2 1 2
6 4 5 2 4 7 4 3 4 4 5 3 6 4 1 5 6 7 7 8 8 9 10 9 6 8 9 8 9 9 9 8 8 8 7 7 7 6 5 5 4 3 3 2 1 1 1 1 2
5 5 2 3 1 5 5 8 3 5 4 2 3 4 5 5 9 9 8 7 7 8 10 9 8 6 9 6 10 9 8 9 8 7 6 6 6 7 7 6 5 4 3 2 1 1 2 3 5
3 6 1 4 3 4 4 7 4 1 6 0 2 4 1 13 12 9 8 6 5 6 9 7 8 8 9 8 9 10 8 6 7 7 7 5 2 3 4 4 6 6 5 4 4 3 3 4 5
5 4 8 5 2 4 4 2 3 2 0 2 3 5 8 10 10 11 7 10 8 9 9 11 10 10 9 8 7 8 5 4 4 3 3 3 3 3 3 4 5 6 6 6 6 6 6 5 3
4 6 5 3 4 3 4 8 3 4 3 6 7 7 8 8 6 8 7 6 8 9 7 9 11 11 11 8 6 3 2 2 2 3 3 3 2 2 2 1 2 3 5 2 4 4 3 4 3
2 5 4 5 2 3 4 6 6 4 7 6 8 11 8 10 9 8 8 8 7 7 6 7 7 8 8 5 6 6 4 3 2 3 4 3 2 2 3 2 3 3 2 4 3 3 4 5 5
5 5 6 6 6 6 3 7 5 6 6 1 9 9 10 9 8 6 6 7 8 8 7 7 7 6 5 5 4 4 4 4 4 4 4 4 3 4 3 3 3 3 3 3 4 4 4 4 5
5 4 7 4 4 5 4 6 2 5 5 5 10 11 9 11 9 5 6 6 10 8 7 7 6 6 6 4 5 4 3 4 3 3 4 5 3 3 3 2 4 3 3 3 3 4 4 5 4
3 5 8 6 7 9 7 7 6 4 6 4 5 6 7 7 6 6 6 7 9 6 7 9 8 7 7 6 5 4 3 3 2 1 2 3 4 3 3 3 3 3 3 4 3 4 4 5 5
1 3 4 2 4 3 8 9 7 7 11 9 7 5 6 5 5 4 4 5 6 7 10 9 7 7 7 6 4 3 4 4 4 3 3 5 4 1 1 1 2 3 3 3 4 4 4 5 6
4 5 6 9 9 4 7 6 7 6 8 9 8 8 8 6 4 3 3 3 4 4 8 11 10 8 6 5 5 5 6 5 5 6 6 7 7 7 5 4 3 4 3 3 4 4 3 6 6
6 5 5 9 2 2 2 9 10 4 9 14 13 9 8 8 6 3 5 4 4 4 9 11 8 8 6 7 5 6 6 6 5 6 6 7 5 7 5 4 5 5 4 4 3 3 3 2 5
5 4 7 2 3 2 6 7 14 9 8 11 12 10 8 6 3 3 3 5 6 5 8 8 12 8 7 5 4 4 4 3 4 4 5 5 5 6 6 4 3 2 3 2 3 3 3 3 3
4 4 15 9 6 7 10 10 11 6 7 12 17 14 13 8 7 5 4 2 3 6 8 10 10 8 6 3 4 4 4 3 4 2 5 7 7 6 5 4 4 4 3 5 4 4 3 2 3
9 16 14 9 4 5 7 10 10 7 5 5 10 11 10 15 14 8 6 6 6 8 9 11 9 9 8 6 6 4 4 3 4 4 4 4 6 6 6 6 5 5 4 3 3 4 5 2 2
12 10 5 5 3 7 3 7 4 4 6 6 9 11 14 15 12 10 8 7 8 7 7 10 10 10 8 7 7 7 4 3 1 2 1 2 5 5 5 5 4 4 2 4 2 2 1 1 4
9 7 9 5 5 2 6 5 6 8 8 9 10 11 14 16 16 14 10 10 7 8 8 8 10 9 8 8 8 6 6 3 1 2 4 4 2 3 3 3 3 4 2 1 1 3 4 1 2
6 3 1 0 3 7 15 9 6 8 11 7 8 15 17 17 15 13 10 9 7 7 8 8 9 7 7 8 8 9 8 5 3 3 3 3 2 3 3 2 1 2 2 2 2 2 2 3 3
6 7 3 4 2 11 10 12 19 6 7 11 17 19 19 17 17 17 15 12 11 10 8 8 10 7 7 8 8 7 7 6 5 3 1 1 2 1 3 2 3 2 3 4 4 3 4 3 3
20 15 9 8 9 7 6 9 8 9 11 6 11 20 18 18 18 17 15 13 12 10 8 8 8 9 7 8 7 6 7 4 3 3 1 1 2 3 3 5 5 7 6 6 5 4 5 5 5
6 17 13 5 1 2 6 7 6 1 5 3 9 15 19 20 21 20 15 13 12 11 9 9 9 7 7 7 7 6 5 5 3 1 1 1 2 3 5 5 6 6 6 6 5 4 6 4 6
13 10 5 3 6 17 5 6 8 4 8 5 10 16 16 16 17 16 14 13 10 10 8 8 8 8 7 7 6 5 5 4 3 2 4 3 3 3 4 5 4 6 6 6 6 5 7 6 7
12 11 7 6 7 8 13 11 9 19 16 15 14 16 19 19 18 16 13 11 10 8 7 8 8 8 7 7 5 6 5 5 5 5 5 5 4 5 6 6 6 5 6 6 5 6 7 7 8
26 26 21 8 4 5 6 21 4 6 6 9 10 10 11 13 14 15 13 11 10 9 8 8 7 8 7 6 6 6 6 5 6 6 5 5 6 6 5 4 5 5 6 6 6 7 7 7 8
Wind_Direction
150 76 80 42 56 64 270 269 269 282 316 188 118 137 177 131 175 217 351 131 130 133 140 142 141 133 123 121 119 118 119 120 118 119 118 118 115 111 110 115 124 126 124 121 123 121 113 112 111
89 97 45 73 81 62 278 270 236 214 145 120 95 115 99 149 131 290 100 123 115 132 139 156 147 143 132 125 121 118 118 117 118 115 114 120 123 120 119 106 97 113 118 118 121 118 112 115 107
93 54 77 86 101 146 214 233 256 339 139 127 111 86 118 332 28 151 61 124 119 122 135 156 142 140 133 129 127 123 123 118 115 117 116 115 111 116 117 109 107 97 115 115 109 99 99 96 90
66 13 42 77 271 246 205 295 221 123 231 103 120 73 45 2 144 134 123 119 118 126 136 147 135 137 136 133 129 124 124 121 116 108 109 112 117 116 108 108 107 94 85 85 103 83 71 77 81
31 52 54 38 284 261 240 252 163 212 150 119 159 158 68 38 73 102 119 124 128 131 134 142 137 140 137 131 127 126 123 122 115 119 120 125 129 130 129 129 127 115 99 54 69 101 63 50 54
36 94 57 347 281 283 291 237 153 198 21 147 96 109 114 137 123 130 116 114 110 126 133 135 136 132 127 128 131 129 132 131 131 136 137 135 132 133 137 141 145 143 139 131 110 120 126 63 70
110 78 168 219 267 320 299 302 165 157 135 224 157 96 242 169 131 112 98 95 100 116 134 132 124 130 120 130 136 137 137 136 142 143 140 143 141 149 162 173 180 180 181 180 171 176 236 300 323
107 90 123 243 221 282 309 334 162 149 213 111 141 178 207 164 122 107 92 87 97 119 142 144 143 141 161 162 154 148 145 149 150 153 148 151 162 171 181 186 198 203 206 204 234 219 274 305 308
126 62 244 243 184 274 317 18 296 84 123 222 116 143 82 119 119 108 105 99 107 131 153 147 152 158 166 171 173 169 162 160 161 162 168 161 171 198 203 194 208 217 220 221 215 225 257 288 296
94 121 223 219 224 298 277 237 258 309 132 160 40 50 115 127 141 144 153 156 167 170 171 172 171 164 165 170 172 177 161 160 161 169 183 172 199 222 213 224 223 230 227 232 236 239 239 245 232
160 183 219 250 249 255 294 319 220 171 199 224 188 175 154 143 157 154 156 175 174 183 179 179 171 175 172 168 163 148 141 151 156 175 174 198 230 243 257 266 271 244 243 235 239 248 248 241 240
159 241 222 282 172 333 290 308 293 188 230 205 205 161 149 151 165 174 177 174 164 171 181 167 164 166 173 153 163 169 171 156 160 177 198 194 218 237 243 232 237 248 257 253 250 249 246 248 253
186 225 232 244 281 259 282 265 233 270 298 127 144 145 161 158 174 188 192 174 158 182 177 175 156 143 145 151 153 158 174 174 185 186 205 198 212 227 231 239 242 238 223 222 234 239 246 255 250
180 223 267 266 248 256 244 266 161 268 130 156 162 168 175 171 174 148 172 179 178 179 168 145 148 144 150 145 170 184 183 184 193 197 204 202 213 227 236 251 254 261 248 246 241 239 243 247 232
270 330 312 208 210 230 163 292 224 223 132 167 177 169 160 164 160 186 184 168 177 176 145 153 149 156 150 167 176 178 191 172 181 204 292 265 222 215 213 231 252 262 251 251 251 256 247 258 248
321 61 325 227 139 282 143 250 253 190 155 182 182 172 166 161 174 173 154 150 169 157 166 151 150 150 153 167 167 125 105 97 86 69 53 37 32 321 245 287 293 280 264 247 247 252 252 256 268
349 247 230 298 203 187 159 255 249 164 171 196 196 187 175 163 183 181 140 146 164 189 166 148 146 154 150 128 113 101 80 67 59 56 45 38 40 40 47 38 18 7 5 351 342 334 304 313 306
183 229 253 245 316 145 228 256 281 227 194 205 196 184 185 184 196 140 129 136 130 134 158 146 134 132 110 104 94 81 70 66 64 66 51 36 39 42 46 36 26 24 26 11 355 333 333 304 296
146 204 252 247 182 190 231 255 270 279 222 211 190 175 190 176 131 120 121 123 110 84 114 121 123 114 123 110 102 85 93 96 72 78 84 77 74 63 61 51 38 42 27 336 1 335 320 315 325
201 228 254 303 209 177 264 255 259 242 226 194 196 186 170 153 157 165 160 139 89 109 108 105 103 104 104 112 107 119 131 105 105 69 50 40 41 42 54 44 34 42 25 21 18 11 328 297 345
217 228 252 225 353 254 271 278 256 255 184 185 207 198 160 167 166 168 158 134 120 112 118 114 110 103 97 109 105 85 68 50 39 24 22 13 38 42 45 44 38 39 48 35 14 5 7 320 305
230 200 210 246 114 261 145 280 266 258 216 205 181 174 174 168 166 163 161 152 141 127 112 110 111 105 98 97 89 93 112 114 130 140 187 29 41 56 52 55 62 68 56 33 3 341 297 340 302
230 145 189 215 200 262 266 265 223 212 216 212 201 187 183 174 165 166 166 161 149 140 133 118 107 102 109 108 114 112 95 103 127 79 42 28 41 70 76 71 57 51 52 29 344 346 342 299 289
150 110 298 126 153 249 236 217 200 210 222 201 194 189 180 171 165 163 166 151 144 141 129 124 116 113 116 104 98 103 112 118 83 41 50 3 347 9 21 31 172 205 209 229 252 246 247 247 249
170 114 296 290 208 249 211 232 247 242 222 199 190 190 184 175 166 167 166 161 152 150 142 130 128 126 123 111 110 115 115 112 114 127 166 311 319 290 272 260 275 280 268 270 258 254 257 246 226
202 194 193 204 225 252 188 236 240 218 225 214 196 186 170 171 170 171 168 159 157 151 148 138 132 126 127 122 114 115 117 122 140 160 180 256 258 278 310 315 311 307 311 302 306 301 281 258 248
174 210 205 295 143 311 218 289 298 216 263 163 157 163 179 176 171 171 166 161 153 151 155 145 134 131 136 125 119 106 105 109 120 97 232 293 320 302 301 297 294 292 289 283 288 273 272 260 256
178 153 152 212 232 253 226 240 232 286 247 180 170 182 179 174 170 164 162 156 156 153 142 140 137 131 128 118 114 116 112 94 83 64 43 21 347 341 336 328 324 327 324 307 291 277 268 260 269
191 209 201 167 163 230 271 255 206 219 211 191 190 185 178 174 169 160 158 156 147 136 135 133 124 121 116 114 105 102 91 87 84 72 57 43 21 11 12 2 348 332 314 308 294 279 282 274 276
208 213 202 201 230 241 244 249 165 223 185 169 178 165 163 167 160 155 153 145 143 143 138 132 129 122 124 122 117 107 102 94 81 67 44 29 10 355 336 338 329 316 308 304 309 302 289 279 284